SCP
0 0 0 0 0 0 0 0 0 0 0 0 0 0 0 0 0 0 0 -0 -0 0 0 0 0 0 0 0 0 0 0 0 0 0 0 0 0 0 0 0 0 0 0 0
0 0 0 0 0 0 0 0 0 0 0 0 0 0 0 0 0 0 0 -0 -0 0 0 0 0 0 0 0 0 0 0 0 0 0 0 0 0 0 0 0 0 0 0 0
0 0 0 0 0 0 0 0 0 0 0 0 0 -0 -0 -0 0 0 0 0 0 0 0 0 0 0 0 0 0 0 0 0 0 0 0 0 0 0 0 0 0 0 0 0
0 0 0 0 0 0 0 0 0 0 0 0 0 0 -0 -0 0 0 0 0 0 0 0 0 0 0 0 0 0 0 0 0 0 0 0 0 0 0 0 0 0 0 0 0
0 0 0 0 0 0 0 0 0 0 0 0 0 0 -0 -0 0 0 0 0 0 0 0 0 0 0 0 0 0 0 0 0 0 0 0 0 0 0 0 0 0 0 0 0
0 0 0 0 0 0 0 0 0 0 0 0 0 0 -0 0 0 0 0 -0 -0 0 0 0 0 0 0 0 0 0 0 0 0 0 0 0 0 0 0 0 0 0 0 0
0 0 0 0 0 0 0 0 0 0 0 0 -0 -0 -0 -0 0 0 0 -0 -0 0 0 0 0 0 0 0 0 0 0 0 0 0 0 0 0 0 0 0 0 0 0 0
0 0 0 0 0 0 0 0 0 0 0 -0 -0 -0 -0 -0 0 0 0 -0 -0 -0 -0 0 0 0 0 0 0 0 0 0 0 0 0 0 0 0 0 0 0 0 0 0
0 0 0 0 0 0 0 0 0 0 0 0 0 0 -0 -0 -0 0 0 0 0 0 0 0 0 0 0 0 0 0 0 0 0 0 0 0 0 0 0 0 0 0 0 0
0 0 0 0 0 0 0 0 0 0 0 0 0 0 0 -0 -0 -0 0 0 0 0 0 0 0 0 0 0 0 0 0 0 0 0 0 0 0 0 0 0 0 0 0 0
0 0 0 0 0 0 0 0 -0 -0 -0 0 0 0 0 0 -0 -0 -0 0 0 0 0 0 0 0 0 0 0 0 0 0 0 0 0 0 0 0 0 0 0 0 0 0
0 0 0 0 0 0 0 0 -0 -0 -0 -0 0 0 0 0 0 -0 -0 -0 0 0 0 0 0 0 0 0 0 0 0 0 0 0 0 0 0 0 0 0 0 0 0 0
0 0 0 0 0 0 0 0 -0 -0 -0 -0 -0 -0 0 0 0 0 0 0 0 0 0 0 0 0 0 0 0 0 0 0 0 0 0 0 0 0 0 0 0 0 0 0
0 0 0 0 0 0 0 0 -0 -0 -0 -0 -0 -0 -0 0 0 0 0 0 0 0 0 0 0 0 0 0 0 0 0 0 0 0 0 0 0 0 0 0 0 0 0 0
0 0 0 0 0 0 0 0 0 0 0 0 -0 -0 -0 0 0 0 0 0 0 0 0 0 0 0 0 0 0 0 0 0 0 0 0 0 0 0 0 0 0 0 0 0
0 0 0 0 0 0 0 0 0 0 0 0 -0 -0 -0 0 0 0 0 0 0 0 0 0 0 0 0 0 0 0 0 0 0 0 0 0 0 0 0 0 0 0 0 0
0 0 0 0 0 0 0 0 0 0 0 0 0 0 0 0 0 0 0 0 0 0 0 0 0 0 0 0 0 0 0 0 0 0 0 0 0 0 0 0 0 0 0 0
0 0 0 0 0 0 0 0 0 0 0 0 0 0 0 0 0 0 0 0 0 0 0 0 0 0 0 0 0 0 0 0 0 0 0 0 0 0 0 0 0 0 0 0
0 0 0 0 0 0 0 0 0 0 0 0 0 0 0 0 0 0 0 0 0 0 0 0 0 0 0 0 0 0 0 0 0 0 0 0 0 0 0 0 0 0 0 0
0 0 0 0 0 0 0 0 0 0 0 0 0 0 0 0 0 0 0 0 0 0 0 0 0 0 0 0 0 0 0 0 0 0 0 0 0 0 0 0 0 0 0 0
0 0 0 0 0 0 0 0 0 0 0 0 0 0 0 0 0 0 0 0 0 0 0 0 0 0 0 0 0 0 0 0 0 0 0 0 0 0 0 0 0 0 0 0
0 0 0 0 0 0 0 0 0 0 0 0 0 0 0 0 0 0 0 0 0 0 0 0 0 0 0 0 0 0 0 0 0 0 0 0 0 0 0 0 0 0 0 0
0 0 0 0 0 0 0 0 0 0 0 0 0 0 0 0 0 0 0 0 0 0 0 0 0 0 0 0 0 0 0 0 0 0 0 0 0 0 0 0 0 0 0 0
0 0 0 0 0 0 0 0 0 0 0 0 0 0 0 0 0 0 0 0 0 0 0 0 0 0 0 0 0 0 0 0 0 0 0 0 0 0 0 0 0 0 0 0
0 0 0 0 0 0 0 0 0 0 0 0 0 0 0 0 0 0 0 0 0 0 0 0 0 0 0 0 0 0 0 0 0 0 0 0 0 0 0 0 0 0 0 0
0 0 0 0 0 0 0 0 0 0 0 0 0 0 0 0 0 0 0 0 0 0 0 0 0 0 0 0 0 0 0 0 0 0 0 0 0 0 0 0 0 0 0 0
0 0 0 0 0 0 0 0 0 0 0 0 0 0 0 0 0 0 0 0 0 0 0 0 0 0 0 0 0 0 0 0 0 0 0 0 0 0 0 0 0 0 0 0
Wind_Speed
10 8 7 10 12 12 14 13 13 14 16 17 11 9 8 7 7 7 7 6 6 6 6 6 6 6 7 7 7 7 8 9 11 10 9 9 9 9 8 9 9 9 8 8
9 9 10 12 14 16 17 16 17 16 21 15 10 8 9 9 8 9 8 8 8 7 7 7 8 8 7 7 7 7 8 9 9 8 9 9 9 9 8 8 8 8 8 8
8 7 7 13 15 16 14 14 14 19 22 12 10 11 10 10 9 10 10 9 8 8 8 8 8 8 8 8 6 7 8 8 8 9 9 10 9 9 9 9 8 8 8 8
4 3 13 11 6 11 14 15 14 15 14 12 13 12 10 9 9 10 9 9 8 8 7 7 6 6 6 5 6 7 7 7 8 8 9 8 9 9 9 7 8 8 7 8
4 7 11 10 6 8 11 14 11 14 14 12 10 8 10 8 7 9 9 9 8 7 7 6 6 6 5 5 6 6 7 8 8 9 9 9 10 10 7 7 7 7 7 7
6 7 10 9 4 3 4 11 8 9 11 9 4 6 11 7 7 8 8 7 6 6 5 5 5 4 5 6 6 8 9 8 8 8 9 10 10 8 6 6 7 6 6 6
10 10 11 8 3 2 6 9 4 6 8 7 7 10 10 7 6 6 6 6 6 4 4 5 4 4 5 5 8 8 6 5 6 7 8 8 7 6 6 6 6 5 5 4
8 10 13 5 3 6 8 4 3 4 5 6 8 9 8 7 7 7 6 5 4 4 4 4 3 4 5 6 6 3 3 4 5 6 6 6 7 6 6 7 7 6 5 4
9 10 6 4 7 6 4 5 5 5 6 6 6 7 7 7 7 7 6 5 4 4 5 4 2 3 5 5 3 3 3 4 4 4 5 6 7 8 7 7 6 5 5 5
8 10 8 7 7 6 5 7 7 6 6 6 7 7 7 7 7 6 6 5 4 4 4 5 3 3 4 2 2 3 4 4 4 5 5 5 5 6 7 7 6 6 6 5
10 9 7 8 8 8 8 8 8 7 6 6 7 8 8 7 6 5 6 5 4 4 5 5 3 3 2 2 3 4 4 4 4 4 5 5 4 4 5 5 7 7 6 7
10 7 7 8 7 6 6 7 7 7 7 6 6 7 7 6 6 5 5 5 4 4 4 4 3 3 2 2 4 5 4 4 4 4 4 4 4 3 2 3 5 6 6 6
12 10 9 9 8 7 7 7 7 7 7 7 6 6 6 6 5 5 5 5 5 5 4 4 3 3 3 2 4 5 5 5 4 4 5 5 5 5 4 3 5 6 7 7
9 8 10 9 8 7 7 8 7 6 6 5 5 5 5 5 5 5 5 5 5 4 4 3 3 3 2 2 2 3 4 5 5 4 5 5 5 5 5 6 4 3 4 7
10 9 10 8 7 7 7 6 6 6 6 5 4 5 4 5 6 6 5 4 4 4 4 3 3 3 2 1 2 3 3 3 3 4 4 4 4 4 4 5 4 4 3 4
8 6 7 7 8 7 6 6 7 7 6 6 5 5 5 5 5 5 4 3 3 4 4 3 4 3 1 2 2 2 2 5 5 4 4 4 4 5 5 5 5 4 4 4
6 7 7 7 7 7 7 7 7 7 7 6 6 5 4 4 3 4 4 3 3 4 4 3 3 2 1 2 2 2 2 4 6 4 4 4 4 4 5 5 5 4 4 4
6 7 7 7 7 7 7 6 6 6 6 6 5 4 4 4 4 4 4 3 3 3 3 3 2 1 0 1 2 2 3 3 3 4 4 4 4 4 4 5 5 5 4 4
4 5 5 5 5 5 5 5 5 5 4 3 3 4 4 4 3 3 3 3 3 4 4 2 1 0 1 2 2 2 3 4 4 3 3 5 5 4 4 4 4 5 4 4
4 4 4 4 4 4 4 4 4 3 3 3 2 2 3 3 2 2 2 3 3 3 2 1 0 0 1 2 3 3 4 4 4 4 4 4 4 4 4 4 4 4 4 4
5 5 4 4 4 4 4 4 3 3 3 2 3 3 3 2 2 1 2 2 3 1 1 1 1 0 1 2 3 3 3 4 4 4 4 4 4 4 4 4 4 4 4 3
4 4 4 4 4 4 4 3 2 2 2 2 2 1 1 1 1 1 2 2 2 2 1 0 0 1 2 3 2 3 3 3 4 4 4 4 4 4 4 4 4 4 3 3
4 4 4 4 4 4 4 3 2 1 1 2 2 2 1 1 1 1 2 2 1 1 1 0 1 2 4 3 2 3 3 3 3 4 4 4 4 4 4 4 4 4 4 3
4 4 4 4 3 3 3 3 3 2 1 1 1 1 1 1 1 1 1 1 2 2 1 1 2 3 3 2 2 2 2 3 3 3 4 3 4 4 3 4 4 3 3 4
4 4 3 3 3 2 3 3 2 2 2 1 1 1 1 1 1 1 1 1 0 2 1 2 3 3 2 2 2 2 2 3 3 4 4 4 4 4 3 3 3 3 3 3
3 3 3 3 2 2 2 2 2 2 1 1 2 1 1 1 0 0 0 1 1 2 2 1 2 2 2 2 2 2 3 3 3 3 3 3 4 3 3 3 4 3 3 3
3 2 2 2 2 2 2 2 2 2 1 1 1 1 1 1 1 1 1 1 1 2 2 2 2 2 2 2 2 2 2 3 3 3 3 3 3 3 3 3 2 2 2 2
Wind_Direction
253 258 239 237 237 230 228 231 240 250 251 258 264 268 277 286 290 292 290 285 271 258 252 245 235 226 219 218 209 198 195 200 206 202 195 191 190 190 186 187 189 186 185 188
257 252 252 256 243 233 234 236 242 256 262 259 262 265 272 274 278 279 279 275 268 261 256 246 234 227 222 219 212 197 200 208 205 194 190 190 190 185 182 184 182 180 185 187
259 258 264 253 234 227 230 228 230 244 254 267 267 263 262 267 268 271 273 270 264 257 249 246 237 224 219 217 205 196 203 206 199 192 191 191 184 180 185 185 178 182 187 187
257 239 244 247 220 221 233 243 237 245 257 256 256 261 259 256 260 268 272 271 267 261 257 251 239 226 220 208 198 198 203 204 198 191 190 184 179 185 187 180 181 186 188 188
224 244 267 275 241 211 220 246 239 247 260 266 269 278 270 263 258 260 266 269 265 259 250 248 238 221 203 202 198 200 206 206 200 190 184 181 184 187 184 177 182 185 182 181
219 235 249 255 240 218 210 255 247 242 258 269 276 268 271 287 277 270 273 274 274 272 256 251 247 209 192 202 201 210 212 208 197 187 184 186 187 182 176 176 180 175 177 181
225 239 257 258 251 139 202 243 256 232 245 254 242 246 272 289 284 279 277 275 274 271 261 253 240 195 202 207 216 221 212 198 189 186 184 182 175 170 164 162 161 166 169 173
210 229 247 243 179 202 231 255 269 261 256 256 258 269 276 279 282 284 284 284 282 275 274 274 234 198 212 222 225 205 182 184 186 182 172 163 163 164 161 160 163 167 166 167
208 226 243 215 208 232 244 258 267 271 276 272 273 276 275 274 277 279 280 286 288 273 279 286 253 211 221 235 208 170 173 183 178 167 164 164 165 164 162 164 169 173 171 176
244 254 259 262 261 265 259 260 266 265 272 274 275 279 281 280 282 285 291 290 293 288 282 284 276 251 238 229 180 171 181 181 171 164 164 163 165 166 169 172 174 175 177 180
246 260 277 273 261 261 267 270 272 270 267 267 274 278 277 280 280 284 291 293 293 283 277 278 279 266 255 205 176 182 183 178 172 167 165 163 164 172 176 184 180 178 182 178
246 245 244 262 266 266 267 272 275 276 278 277 268 273 279 280 283 285 287 293 292 285 279 283 282 277 269 216 184 176 176 176 172 164 157 155 147 114 98 138 158 163 167 168
250 259 254 261 273 276 272 275 275 271 270 276 279 278 279 282 285 285 284 282 278 274 276 282 276 270 266 230 195 185 182 178 172 165 161 162 159 156 140 101 117 138 149 154
250 260 265 264 268 274 274 276 277 275 273 270 275 279 278 283 290 289 284 286 287 287 286 286 279 276 275 234 188 181 173 173 169 168 164 162 164 163 157 153 150 137 144 148
253 246 252 265 274 278 280 281 283 282 283 282 279 275 272 275 282 287 289 295 301 303 296 289 280 283 284 206 175 169 164 165 158 151 147 148 148 147 145 147 147 142 131 143
260 257 254 258 266 274 278 275 275 277 278 278 279 277 275 273 277 285 293 292 285 289 291 285 281 287 267 176 156 153 159 153 145 144 141 144 147 149 149 150 150 153 158 159
254 261 263 267 270 273 270 268 271 276 278 275 276 279 283 286 284 284 295 299 288 290 293 282 281 289 226 165 156 155 152 148 140 138 146 154 155 156 156 156 156 158 164 170
245 254 259 263 271 274 278 279 279 278 277 278 282 279 271 267 267 276 292 302 307 311 309 297 297 304 146 146 141 143 146 143 145 148 151 155 153 151 150 151 152 153 150 155
282 275 277 278 278 277 279 281 279 278 282 280 273 273 276 273 268 277 291 292 292 300 308 309 315 44 142 141 128 136 139 139 140 145 147 150 143 142 147 150 153 153 153 154
310 296 287 288 292 285 283 284 282 281 281 275 272 279 284 283 280 283 290 289 284 284 290 308 25 148 157 143 127 133 137 142 146 146 144 149 150 150 149 150 151 150 154 157
327 323 317 307 306 306 297 291 287 289 292 281 259 256 265 280 283 278 278 290 301 311 331 19 49 126 135 129 122 128 135 141 147 151 153 152 149 148 147 149 149 150 151 153
326 326 323 320 317 316 317 312 300 294 301 297 283 264 269 287 309 313 290 271 283 324 359 1 40 131 128 120 120 129 137 142 147 148 149 150 151 152 151 152 152 152 154 157
320 321 321 320 315 313 324 328 322 312 304 302 295 282 274 281 281 276 303 309 301 345 13 321 113 118 115 106 119 130 140 144 148 149 150 152 153 154 155 155 154 155 157 161
324 324 322 322 324 332 335 334 345 354 348 327 311 291 281 318 326 309 271 302 340 357 10 90 103 105 99 100 115 129 139 141 142 141 140 141 141 144 149 151 152 156 161 165
326 323 326 331 330 324 324 337 353 10 21 14 358 351 342 308 266 297 321 295 25 31 39 74 82 81 87 108 123 134 139 144 143 139 140 142 144 146 150 152 156 160 167 171
327 321 318 315 311 316 328 338 341 345 358 4 3 10 13 14 34 30 48 48 67 61 59 56 63 71 89 111 123 128 130 133 128 129 137 139 142 147 151 152 158 165 171 174
332 333 336 340 340 342 345 344 338 333 332 335 351 357 6 15 31 44 49 58 67 65 62 60 65 73 85 96 105 110 114 120 124 127 130 134 141 148 153 156 162 165 172 178